Time,TemperatureF,DewpointF,PressureIn,WindDirection,WindDirectionDegrees,WindSpeedMPH,WindSpeedGustMPH,Humidity,HourlyPrecipIn,Conditions,Clouds,dailyrainin,SoftwareType,DateUTC
2013-08-11 00:01:00,56.0,53.0,30.06,NW,306,0.0,-999.0,89,-99.99,,,-99.99,,2013-08-11 04:01:00,
2013-08-11 00:12:00,56.0,53.0,30.06,NW,306,0.0,-999.0,89,-99.99,,,-99.99,,2013-08-11 04:12:00,
2013-08-11 00:22:00,56.0,52.0,30.06,NW,306,0.0,-999.0,87,-99.99,,,-99.99,,2013-08-11 04:22:00,
2013-08-11 00:32:00,56.0,52.0,30.06,NW,306,0.0,-999.0,87,-99.99,,,-99.99,,2013-08-11 04:32:00,
2013-08-11 00:43:00,56.0,52.0,30.06,NW,306,0.0,-999.0,87,-99.99,,,-99.99,,2013-08-11 04:43:00,
2013-08-11 00:53:00,56.0,52.0,30.06,NW,306,0.0,-999.0,87,-99.99,,,-99.99,,2013-08-11 04:53:00,
2013-08-11 01:02:00,56.0,52.0,30.06,NW,306,0.0,-999.0,87,-99.99,,,-99.99,,2013-08-11 05:02:00,
2013-08-11 01:25:00,56.0,52.0,30.06,SW,217,1.0,-999.0,87,-99.99,,,-99.99,,2013-08-11 05:25:00,
2013-08-11 01:37:00,56.0,52.0,30.06,SW,217,0.0,-999.0,87,-99.99,,,-99.99,,2013-08-11 05:37:00,
2013-08-11 01:48:00,56.0,52.0,30.06,SW,217,0.0,-999.0,87,-99.99,,,-99.99,,2013-08-11 05:48:00,
2013-08-11 01:58:00,56.0,52.0,30.06,SW,217,0.0,-999.0,88,-99.99,,,-99.99,,2013-08-11 05:58:00,
2013-08-11 02:18:00,56.0,52.0,30.06,SW,217,0.0,-999.0,88,-99.99,,,-99.99,,2013-08-11 06:18:00,
2013-08-11 02:27:00,56.0,53.0,30.06,SW,217,0.0,-999.0,89,-99.99,,,-99.99,,2013-08-11 06:27:00,
2013-08-11 02:37:00,55.0,52.0,30.06,SW,217,0.0,-999.0,90,-99.99,,,-99.99,,2013-08-11 06:37:00,
2013-08-11 02:48:00,55.0,52.0,30.06,SW,217,0.0,-999.0,90,-99.99,,,-99.99,,2013-08-11 06:48:00,
2013-08-11 02:57:00,55.0,52.0,30.06,SW,217,0.0,-999.0,90,-99.99,,,-99.99,,2013-08-11 06:57:00,
2013-08-11 03:06:00,55.0,52.0,30.06,SW,217,0.0,-999.0,91,-99.99,,,-99.99,,2013-08-11 07:06:00,
2013-08-11 03:16:00,55.0,52.0,30.06,SW,217,0.0,-999.0,91,-99.99,,,-99.99,,2013-08-11 07:16:00,
2013-08-11 03:25:00,55.0,52.0,30.06,SW,217,0.0,-999.0,91,-99.99,,,-99.99,,2013-08-11 07:25:00,
2013-08-11 03:36:00,55.0,52.0,30.06,SW,217,0.0,-999.0,91,-99.99,,,-99.99,,2013-08-11 07:36:00,
2013-08-11 03:46:00,55.0,52.0,30.06,SW,217,0.0,-999.0,91,-99.99,,,-99.99,,2013-08-11 07:46:00,
2013-08-11 03:56:00,55.0,53.0,30.06,SW,217,0.0,-999.0,92,-99.99,,,-99.99,,2013-08-11 07:56:00,
2013-08-11 04:11:00,55.0,52.0,30.06,SW,217,0.0,-999.0,91,-99.99,,,-99.99,,2013-08-11 08:11:00,
2013-08-11 04:20:00,55.0,52.0,30.06,SW,217,0.0,-999.0,91,-99.99,,,-99.99,,2013-08-11 08:20:00,
2013-08-11 04:27:00,54.0,52.0,30.06,SW,217,0.0,-999.0,92,-99.99,,,-99.99,,2013-08-11 08:27:00,
2013-08-11 04:36:00,54.0,52.0,30.06,SW,217,0.0,-999.0,92,-99.99,,,-99.99,,2013-08-11 08:36:00,
2013-08-11 04:59:00,54.0,52.0,30.06,SW,217,0.0,-999.0,92,-99.99,,,-99.99,,2013-08-11 08:59:00,
2013-08-11 05:17:00,53.0,51.0,30.06,SW,217,0.0,-999.0,93,-99.99,,,-99.99,,2013-08-11 09:17:00,
2013-08-11 05:30:00,53.0,51.0,30.06,SW,217,0.0,-999.0,93,-99.99,,,-99.99,,2013-08-11 09:30:00,
2013-08-11 05:35:00,53.0,51.0,30.07,SW,217,0.0,-999.0,93,-99.99,,,-99.99,,2013-08-11 09:35:00,
2013-08-11 05:44:00,53.0,51.0,30.07,SW,217,0.0,-999.0,93,-99.99,,,-99.99,,2013-08-11 09:44:00,
2013-08-11 06:01:00,53.0,51.0,30.07,SW,217,0.0,-999.0,93,-99.99,,,-99.99,,2013-08-11 10:01:00,
2013-08-11 06:15:00,52.0,50.0,30.07,SW,217,0.0,-999.0,93,-99.99,,,-99.99,,2013-08-11 10:15:00,
2013-08-11 06:29:00,52.0,50.0,30.08,SW,217,0.0,-999.0,93,-99.99,,,-99.99,,2013-08-11 10:29:00,
2013-08-11 06:47:00,52.0,50.0,30.08,SW,217,0.0,-999.0,94,-99.99,,,-99.99,,2013-08-11 10:47:00,
2013-08-11 06:57:00,53.0,51.0,30.08,SW,217,0.0,-999.0,94,-99.99,,,-99.99,,2013-08-11 10:57:00,
2013-08-11 07:06:00,53.0,51.0,30.08,SW,217,0.0,-999.0,94,-99.99,,,-99.99,,2013-08-11 11:06:00,
2013-08-11 07:24:00,54.0,53.0,30.09,SW,217,0.0,-999.0,95,-99.99,,,-99.99,,2013-08-11 11:24:00,
2013-08-11 07:37:00,55.0,53.0,30.09,SW,217,0.0,-999.0,94,-99.99,,,-99.99,,2013-08-11 11:37:00,
2013-08-11 07:48:00,55.0,53.0,30.09,SW,217,0.0,-999.0,94,-99.99,,,-99.99,,2013-08-11 11:48:00,
2013-08-11 08:01:00,56.0,54.0,30.09,SW,217,1.0,-999.0,94,-99.99,,,-99.99,,2013-08-11 12:01:00,
2013-08-11 08:06:00,57.0,55.0,30.09,SW,219,1.0,-999.0,94,-99.99,,,-99.99,,2013-08-11 12:06:00,
2013-08-11 08:16:00,57.0,55.0,30.09,SW,219,1.0,-999.0,94,-99.99,,,-99.99,,2013-08-11 12:16:00,
2013-08-11 08:30:00,58.0,56.0,30.09,SW,220,1.0,-999.0,92,-99.99,,,-99.99,,2013-08-11 12:30:00,
2013-08-11 08:46:00,59.0,56.0,30.09,SW,221,2.0,-999.0,89,-99.99,,,-99.99,,2013-08-11 12:46:00,
2013-08-11 08:54:00,61.0,57.0,30.09,SW,219,1.0,-999.0,87,-99.99,,,-99.99,,2013-08-11 12:54:00,
2013-08-11 09:06:00,62.0,57.0,30.09,SW,220,1.0,-999.0,84,-99.99,,,-99.99,,2013-08-11 13:06:00,
2013-08-11 09:17:00,62.0,57.0,30.09,SW,220,1.0,-999.0,84,-99.99,,,-99.99,,2013-08-11 13:17:00,
2013-08-11 09:26:00,63.0,58.0,30.10,SW,220,0.0,-999.0,83,-99.99,,,-99.99,,2013-08-11 13:26:00,
2013-08-11 09:39:00,63.0,58.0,30.10,SW,220,0.0,-999.0,83,-99.99,,,-99.99,,2013-08-11 13:39:00,
2013-08-11 09:46:00,65.0,58.0,30.10,SW,220,0.0,-999.0,79,-99.99,,,-99.99,,2013-08-11 13:46:00,
2013-08-11 09:56:00,66.0,58.0,30.10,SW,221,0.0,-999.0,76,-99.99,,,-99.99,,2013-08-11 13:56:00,
2013-08-11 10:06:00,66.0,58.0,30.10,SW,221,0.0,-999.0,76,-99.99,,,-99.99,,2013-08-11 14:06:00,
2013-08-11 10:24:00,67.0,57.0,30.10,WSW,242,1.0,-999.0,71,-99.99,,,-99.99,,2013-08-11 14:24:00,
2013-08-11 10:35:00,67.0,57.0,30.10,WSW,242,1.0,-999.0,71,-99.99,,,-99.99,,2013-08-11 14:35:00,
2013-08-11 10:49:00,67.0,56.0,30.11,West,273,2.0,-999.0,69,-99.99,,,-99.99,,2013-08-11 14:49:00,
2013-08-11 10:56:00,68.0,57.0,30.11,West,259,1.0,-999.0,69,-99.99,,,-99.99,,2013-08-11 14:56:00,
2013-08-11 11:08:00,68.0,57.0,30.11,West,259,1.0,-999.0,69,-99.99,,,-99.99,,2013-08-11 15:08:00,
2013-08-11 11:16:00,68.0,57.0,30.10,SW,236,1.0,-999.0,67,-99.99,,,-99.99,,2013-08-11 15:16:00,
2013-08-11 11:24:00,68.0,55.0,30.10,WNW,284,2.0,-999.0,64,-99.99,,,-99.99,,2013-08-11 15:24:00,
2013-08-11 11:40:00,68.0,55.0,30.10,WNW,284,2.0,-999.0,64,-99.99,,,-99.99,,2013-08-11 15:40:00,
2013-08-11 11:49:00,70.0,56.0,30.10,West,281,2.0,-999.0,61,-99.99,,,-99.99,,2013-08-11 15:49:00,
2013-08-11 11:58:00,68.0,56.0,30.10,WNW,283,2.0,-999.0,65,-99.99,,,-99.99,,2013-08-11 15:58:00,
2013-08-11 12:11:00,68.0,56.0,30.10,WNW,283,2.0,-999.0,65,-99.99,,,-99.99,,2013-08-11 16:11:00,
2013-08-11 12:29:00,71.0,56.0,30.09,WSW,246,2.0,-999.0,60,-99.99,,,-99.99,,2013-08-11 16:29:00,
2013-08-11 12:40:00,71.0,56.0,30.09,WSW,246,2.0,-999.0,60,-99.99,,,-99.99,,2013-08-11 16:40:00,
2013-08-11 12:46:00,70.0,56.0,30.10,SW,234,2.0,-999.0,62,-99.99,,,-99.99,,2013-08-11 16:46:00,
2013-08-11 12:55:00,69.0,57.0,30.09,SW,234,1.0,-999.0,65,-99.99,,,-99.99,,2013-08-11 16:55:00,
2013-08-11 13:08:00,69.0,57.0,30.09,SW,234,1.0,-999.0,65,-99.99,,,-99.99,,2013-08-11 17:08:00,
2013-08-11 13:15:00,70.0,57.0,30.09,West,279,2.0,-999.0,63,-99.99,,,-99.99,,2013-08-11 17:15:00,
2013-08-11 13:26:00,70.0,56.0,30.09,NNW,336,3.0,-999.0,62,-99.99,,,-99.99,,2013-08-11 17:26:00,
2013-08-11 13:38:00,70.0,56.0,30.09,NNW,336,3.0,-999.0,62,-99.99,,,-99.99,,2013-08-11 17:38:00,
2013-08-11 13:45:00,69.0,58.0,30.08,NW,321,3.0,-999.0,67,-99.99,,,-99.99,,2013-08-11 17:45:00,
2013-08-11 13:55:00,70.0,56.0,30.07,West,275,4.0,-999.0,62,-99.99,,,-99.99,,2013-08-11 17:55:00,
2013-08-11 14:06:00,70.0,56.0,30.07,West,275,4.0,-999.0,62,-99.99,,,-99.99,,2013-08-11 18:06:00,
2013-08-11 14:19:00,71.0,56.0,30.07,West,275,2.0,-999.0,60,-99.99,,,-99.99,,2013-08-11 18:19:00,
2013-08-11 14:40:00,71.0,57.0,30.07,WNW,303,3.0,-999.0,61,-99.99,,,-99.99,,2013-08-11 18:40:00,
2013-08-11 14:47:00,71.0,58.0,30.06,NNW,346,2.0,-999.0,64,-99.99,,,-99.99,,2013-08-11 18:47:00,
2013-08-11 14:55:00,72.0,57.0,30.06,WNW,297,3.0,-999.0,60,-99.99,,,-99.99,,2013-08-11 18:55:00,
2013-08-11 15:10:00,72.0,57.0,30.06,WNW,297,3.0,-999.0,60,-99.99,,,-99.99,,2013-08-11 19:10:00,
2013-08-11 15:16:00,71.0,57.0,30.06,WNW,285,2.0,-999.0,61,-99.99,,,-99.99,,2013-08-11 19:16:00,
2013-08-11 15:27:00,72.0,59.0,30.06,NW,306,3.0,-999.0,64,-99.99,,,-99.99,,2013-08-11 19:27:00,
2013-08-11 15:35:00,72.0,59.0,30.06,NW,306,3.0,-999.0,64,-99.99,,,-99.99,,2013-08-11 19:35:00,
2013-08-11 15:51:00,72.0,58.0,30.06,NNW,331,3.0,-999.0,62,-99.99,,,-99.99,,2013-08-11 19:51:00,
2013-08-11 15:57:00,72.0,59.0,30.05,WNW,289,3.0,-999.0,63,-99.99,,,-99.99,,2013-08-11 19:57:00,
2013-08-11 16:08:00,72.0,59.0,30.05,WNW,289,3.0,-999.0,63,-99.99,,,-99.99,,2013-08-11 20:08:00,
2013-08-11 16:20:00,72.0,56.0,30.05,NW,325,2.0,-999.0,58,-99.99,,,-99.99,,2013-08-11 20:20:00,
2013-08-11 16:28:00,73.0,59.0,30.04,WSW,256,1.0,-999.0,61,-99.99,,,-99.99,,2013-08-11 20:28:00,
2013-08-11 16:38:00,73.0,59.0,30.04,WSW,256,1.0,-999.0,61,-99.99,,,-99.99,,2013-08-11 20:38:00,
2013-08-11 16:56:00,72.0,58.0,30.04,NW,317,2.0,-999.0,61,-99.99,,,-99.99,,2013-08-11 20:56:00,
2013-08-11 17:14:00,73.0,59.0,30.04,NNW,338,2.0,-999.0,61,-99.99,,,-99.99,,2013-08-11 21:14:00,
2013-08-11 17:27:00,72.0,58.0,30.03,NNW,337,1.0,-999.0,61,-99.99,,,-99.99,,2013-08-11 21:27:00,
2013-08-11 17:35:00,72.0,58.0,30.03,NNW,337,1.0,-999.0,61,-99.99,,,-99.99,,2013-08-11 21:35:00,
2013-08-11 17:48:00,73.0,57.0,30.03,NNW,337,1.0,-999.0,57,-99.99,,,-99.99,,2013-08-11 21:48:00,
2013-08-11 17:55:00,73.0,56.0,30.03,NW,315,1.0,-999.0,56,-99.99,,,-99.99,,2013-08-11 21:55:00,
2013-08-11 18:05:00,73.0,56.0,30.03,NW,315,1.0,-999.0,56,-99.99,,,-99.99,,2013-08-11 22:05:00,
2013-08-11 18:17:00,75.0,58.0,30.03,West,274,0.0,-999.0,55,-99.99,,,-99.99,,2013-08-11 22:17:00,
2013-08-11 18:25:00,74.0,58.0,30.03,West,274,1.0,-999.0,57,-99.99,,,-99.99,,2013-08-11 22:25:00,
2013-08-11 18:36:00,74.0,58.0,30.03,West,274,1.0,-999.0,57,-99.99,,,-99.99,,2013-08-11 22:36:00,
2013-08-11 18:47:00,72.0,58.0,30.03,North,355,5.0,-999.0,62,-99.99,,,-99.99,,2013-08-11 22:47:00,
2013-08-11 19:07:00,71.0,58.0,30.02,North,355,3.0,-999.0,64,-99.99,,,-99.99,,2013-08-11 23:07:00,
2013-08-11 19:18:00,72.0,58.0,30.02,North,355,1.0,-999.0,61,-99.99,,,-99.99,,2013-08-11 23:18:00,
2013-08-11 19:29:00,72.0,58.0,30.01,North,350,2.0,-999.0,61,-99.99,,,-99.99,,2013-08-11 23:29:00,
2013-08-11 19:48:00,71.0,56.0,30.01,North,350,1.0,-999.0,60,-99.99,,,-99.99,,2013-08-11 23:48:00,
2013-08-11 19:57:00,71.0,58.0,30.01,North,350,1.0,-999.0,63,-99.99,,,-99.99,,2013-08-11 23:57:00,
2013-08-11 20:07:00,71.0,58.0,30.01,North,350,1.0,-999.0,63,-99.99,,,-99.99,,2013-08-12 00:07:00,
2013-08-11 20:18:00,70.0,57.0,30.01,North,350,0.0,-999.0,64,-99.99,,,-99.99,,2013-08-12 00:18:00,
2013-08-11 20:26:00,70.0,57.0,30.01,North,350,0.0,-999.0,64,-99.99,,,-99.99,,2013-08-12 00:26:00,
2013-08-11 20:37:00,69.0,58.0,30.01,North,350,0.0,-999.0,67,-99.99,,,-99.99,,2013-08-12 00:37:00,
2013-08-11 20:50:00,68.0,58.0,30.01,North,350,0.0,-999.0,71,-99.99,,,-99.99,,2013-08-12 00:50:00,
2013-08-11 21:08:00,66.0,57.0,30.01,North,350,0.0,-999.0,73,-99.99,,,-99.99,,2013-08-12 01:08:00,
2013-08-11 21:15:00,65.0,58.0,30.01,North,350,0.0,-999.0,77,-99.99,,,-99.99,,2013-08-12 01:15:00,
2013-08-11 21:26:00,64.0,58.0,30.01,North,350,0.0,-999.0,80,-99.99,,,-99.99,,2013-08-12 01:26:00,
2013-08-11 21:39:00,64.0,58.0,30.01,North,350,0.0,-999.0,80,-99.99,,,-99.99,,2013-08-12 01:39:00,
2013-08-11 21:47:00,63.0,57.0,30.01,North,350,0.0,-999.0,82,-99.99,,,-99.99,,2013-08-12 01:47:00,
2013-08-11 21:55:00,62.0,57.0,30.01,North,350,0.0,-999.0,84,-99.99,,,-99.99,,2013-08-12 01:55:00,
2013-08-11 22:08:00,62.0,57.0,30.01,North,350,0.0,-999.0,84,-99.99,,,-99.99,,2013-08-12 02:08:00,
2013-08-11 22:16:00,62.0,57.0,30.01,North,350,0.0,-999.0,85,-99.99,,,-99.99,,2013-08-12 02:16:00,
2013-08-11 22:25:00,63.0,58.0,30.01,North,350,0.0,-999.0,85,-99.99,,,-99.99,,2013-08-12 02:25:00,
2013-08-11 22:37:00,63.0,58.0,30.01,North,350,0.0,-999.0,85,-99.99,,,-99.99,,2013-08-12 02:37:00,
2013-08-11 22:48:00,62.0,57.0,30.01,North,350,0.0,-999.0,85,-99.99,,,-99.99,,2013-08-12 02:48:00,
2013-08-11 23:25:00,63.0,58.0,30.01,North,350,0.0,-999.0,85,-99.99,,,-99.99,,2013-08-12 03:25:00,
2013-08-11 23:39:00,63.0,58.0,30.01,North,350,0.0,-999.0,85,-99.99,,,-99.99,,2013-08-12 03:39:00,